#timestamp,LO_Frequency,Hit,StdDev 
1555610415.3,286047006.5,N
1555610435.2,286047004.6,N
1555610455.0,286047009.0,N
1555610455.9,286047009.0,N
1555610475.8,286047008.1,N
1555610495.6,286047008.9,N
1555610515.4,286047004.6,N
1555610535.3,286047004.9,N
1555610555.1,286047004.8,N
1555610575.9,286047005.6,N
1555610595.7,286047004.4,N
1555610615.5,286047008.7,N
1555610635.4,286047004.9,N
1555610655.2,286047005.5,N
1555610675.0,286047001.3,N
1555610675.9,286047001.3,N
1555610695.8,286047009.1,N
1555610715.6,286047006.1,N
1555610735.5,286047002.9,N
1555610755.3,286047003.8,N
1555610775.1,286047005.6,N
1555610795.9,286047005.5,N
1555610815.7,286047003.0,N
1555610835.6,286047004.8,N
1555610855.4,286047004.2,N
1555610875.2,286046998.7,N
1555610895.1,286047002.5,N
1555610896.0,286047002.5,N
1555610915.8,286047003.1,N
1555610935.6,286047003.7,N
1555610955.5,286047000.3,N
1555610975.3,286047000.7,N
1555610995.2,286047001.0,N
1555611015.9,286046999.6,N
1555611035.7,286047000.4,N
1555611055.6,286046998.6,N
1555611075.4,286046999.3,N
1555611095.2,286046995.2,N
1555611115.1,286046999.5,N
1555611116.0,286047011.9,Y
1555611135.8,286046994.9,P
1555611155.7,286046998.3,N
1555611175.5,286046998.7,N
1555611195.3,286047001.1,N
1555611215.2,286047000.2,N
1555611235.0,286046999.7,N
1555611235.9,286046999.7,N
1555611255.8,286047002.5,N
1555611275.6,286047001.8,N
1555611295.4,286047003.6,N
1555611315.3,286047002.7,N
1555611335.1,286047001.0,N
1555611355.8,286046998.6,N
1555611375.7,286046998.8,N
1555611395.5,286046997.1,N
1555611415.4,286046997.7,N
1555611435.2,286047000.0,N
1555611455.0,286047002.1,N
1555611455.9,286047002.1,N
1555611475.8,286047001.4,N
1555611495.6,286047003.8,N
1555611515.4,286047004.8,N
1555611535.3,286047002.7,N
1555611555.1,286046999.1,N
1555611575.9,286046998.2,N
1555611595.7,286046997.7,N
1555611615.5,286046997.2,N
1555611635.4,286046996.5,N
1555611655.2,286046996.1,N
1555611705.1,286046993.5,E
1555611715.9,286046997.3,N
1555611735.7,286046998.8,P
1555611755.6,286046999.3,N
1555611775.4,286047000.6,N
1555611795.3,286046998.1,N
1555611815.1,286047001.8,N
1555611816.0,286047001.8,N
1555611835.8,286047000.3,N
1555611855.7,286047003.4,N
1555611875.5,286047004.9,N
1555611895.3,286047004.7,N
1555611915.2,286047006.7,N
1555611935.0,286047004.8,N
1555611935.9,286047004.8,N
1555611955.8,286047007.3,N
1555611975.6,286047007.5,N
1555611995.4,286047005.2,N
1555612015.3,286047005.2,N
1555612035.1,286047004.9,N
1555612055.8,286047006.1,N
1555612075.7,286047011.4,Y
1555612095.5,286047009.9,P
1555612115.4,286047009.3,N
1555612135.2,286047009.6,P
1555612155.0,286047011.6,Y
1555612155.9,286047011.6,P
1555612175.8,286047005.6,P
1555612195.6,286047010.6,P
1555612215.5,286047014.9,Y
1555612235.3,286047006.9,P
1555612255.1,286047003.8,P
1555612275.9,286047003.5,N
1555612295.7,286047004.8,N
1555612315.5,286047004.3,N
1555612335.4,286047003.4,N
1555612355.2,286047001.5,N
1555612375.1,286047003.5,N
1555612406.0,286047009.4,E
1555612415.0,286047004.7,N
1555612415.9,286047004.7,P
1555612435.8,286047002.7,P
1555612455.6,286047000.0,N
1555612475.4,286047001.5,N
1555612495.3,286047007.1,Y
1555612515.1,286047004.2,P
1555612535.9,286047001.5,N
1555612555.7,286047001.7,N
1555612575.5,286047004.2,Y
1555612595.4,286047000.0,P
1555612615.2,286047001.2,N
1555612635.0,286047000.5,N
1555612635.9,286047000.5,N
1555612655.8,286047001.6,N
1555612675.6,286047003.8,Y
1555612695.5,286047001.9,P
1555612715.3,286046999.9,N
1555612735.1,286047004.3,P
1555612755.9,286047006.7,Y
1555612775.7,286047000.3,P
1555612795.6,286047002.5,P
1555612815.4,286046998.2,N
1555612835.2,286047006.0,Y
1555612855.1,286047003.4,P
1555612886.0,286047003.1,E
1555612895.0,286047005.5,N
1555612895.9,286047005.5,P
1555612915.8,286047004.7,P
1555612935.6,286047005.7,Y
1555612955.5,286047005.5,P
1555612975.3,286047003.4,P
1555612995.1,286047008.7,P
1555613015.9,286047004.1,N
1555613035.7,286047005.0,N
1555613055.5,286047001.6,N
1555613075.4,286047003.2,N
1555613095.2,286047007.2,Y
1555613115.1,286047002.7,P
1555613116.0,286047002.7,N
1555613135.8,286047000.6,N
1555613155.6,286047002.9,N
1555613175.5,286047004.4,Y
1555613195.3,286047002.3,P
1555613215.1,286047004.4,P
1555613235.9,286047006.9,P
1555613255.7,286047010.4,Y
1555613275.6,286047003.1,P
1555613295.4,286047005.5,P
1555613315.2,286047001.4,N
1555613335.1,286047003.6,N
1555613336.0,286047003.6,N
1555613355.8,286047006.2,Y
1555613375.7,286047002.9,P
1555613395.5,286046999.3,N
1555613415.3,286046996.4,N
1555613435.2,286046993.3,N
1555613455.0,286046989.0,N
1555613455.9,286046989.0,N
1555613475.8,286046985.8,N
1555613495.6,286046983.9,N
1555613515.4,286046984.5,N
1555613535.3,286046983.9,N
1555613555.1,286046982.9,N
1555613575.8,286046981.4,N
1555613595.7,286046980.6,N
1555613615.5,286046980.8,N
1555613635.4,286046985.2,N
1555613655.2,286046984.5,N
1555613675.0,286046984.5,N
1555613675.9,286046984.5,N
1555613695.8,286046982.3,N
1555613715.6,286046983.3,N
1555613735.4,286046980.7,N
1555613755.3,286046981.9,N
1555613775.1,286046983.4,N
1555613795.9,286046986.5,N
1555613815.7,286046988.1,N
1555613835.5,286046989.5,N
1555613855.4,286046988.3,N
1555613875.2,286046985.5,N
1555613895.0,286046987.8,N
1555613895.9,286046987.8,N
1555613915.8,286046990.0,N
1555613935.6,286046989.4,N
1555613955.5,286046987.1,Y
1555613975.3,286047004.1,P
1555613995.1,286047003.2,N
